Regional Weather Roundup
Issued by NWS Portland, ME

Current Version | Previous Version | Graphics & Text | Print | Product List | Glossary Off
Versions: 1 2 3 4 5 6 7 8 9 10 11 12 13 14 15 16 17 18 19 20 21 22 23 24 25 26 27 28 29 30 31 32 33 34 35 36 37 38 39 40 41 42 43 44 45 46 47 48 49 50
000 ASUS41 KGYX 232110 RWRGYX WEATHER ROUNDUP FOR MAINE AND NEW HAMPSHIRE NATIONAL WEATHER SERVICE GRAY ME 500 PM EDT WED AUG 23 2017 MEZ002-005-006-010-012-015-018-020-021-024-026-027-029-232200- MAINE CITY SKY/WX TMP DP RH WIND PRES REMARKS PORTLAND MOSUNNY 78 51 38 W12 29.74R SANFORD MOSUNNY 78 54 43 NW12G17 29.76S BAR HARBOR CLOUDY 79 59 50 SW8 29.68R WISCASSET MOSUNNY 80 52 37 VRB5 29.72R ROCKLAND MOSUNNY 80 56 43 W10 29.70R FRYEBURG MOSUNNY 77 52 41 W8G18 29.76R LEWISTONAUBURN CLOUDY 78 51 38 W12 29.73R AUGUSTA MOSUNNY 77 50 38 NW8G18 29.73R WATERVILLE SUNNY 76 51 41 W8G18 29.70R BANGOR MOSUNNY 79 50 36 W10 29.69R GREENVILLE N/A 67 48 50 VRB7G16 29.72R MILLINOCKET SUNNY 76 49 38 W12G22 29.68R HOULTON MOSUNNY 74 52 46 W14G20 29.63R PRESQUE ISLE MOSUNNY 75 51 43 SW15 29.64R FRENCHVILLE PTSUNNY 70 46 42 W17G35 29.61S CARIBOU MOSUNNY 74 50 42 SW14G23 29.61R $$ NHZ002-005-008-009-011-012-014-232200- NEW HAMPSHIRE CITY SKY/WX TMP DP RH WIND PRES REMARKS PORTSMOUTH PTSUNNY 78 54 42 W7 29.75R ROCHESTER MOSUNNY 77 51 40 W12 29.76R NASHUA MOSUNNY 78 55 44 W9 29.79R MANCHESTER PTSUNNY 78 51 38 W8 29.76S CONCORD PTSUNNY 78 52 40 NW12 29.78R LACONIA SUNNY 75 53 46 W10G16 29.78S PLYMOUTH FAIR 74 50 42 W5 29.77S BERLIN MOSUNNY 72 48 42 VRB5 29.78R WHITEFIELD PTSUNNY 72 51 47 W6 29.79R JAFFREY MOSUNNY 74 51 44 W10G24 29.83R KEENE N/A N/A N/A N/A MISG N/A LEBANON MOSUNNY 78 50 37 W8 29.78S MT WASHINGTON PTSUNNY 45 41 87 W52G59 N/A $$ VTZ005-007-008-232200- VERMONT CITY SKY/WX TMP DP RH WIND PRES REMARKS ST JOHNSBURY N/A 73 51 46 MISG 29.76S MONTPELIER PTSUNNY 71 51 49 VRB7 29.82F BURLINGTON MOSUNNY 76 50 40 W12G21 29.77S $$ MAZ007-012-024-CTZ003-RIZ002-NYZ038-NYZ072-232200- SOUTHERN NEW ENGLAND AND NY CITY SKY/WX TMP DP RH WIND PRES REMARKS BOSTON PTSUNNY 81 52 36 W15G22 29.76S WORCESTER MOSUNNY 73 50 44 NW14 29.83R NANTUCKET SUNNY 76 71 85 W13 29.77F PROVIDENCE PTSUNNY 82 51 34 W15 29.78S HARTFORD PTSUNNY 80 52 37 NW12 29.81S ALBANY MOSUNNY 76 49 38 W15 29.83R NEW YORK CITY PTSUNNY 81 56 42 NW12 29.82S $$ ANZ081-ANZ082-ANZ150-NHZ014-MEZ023>029-232200- COASTAL MARINE OBSERVATIONS STATION/POSITION TIME TEMP WIND PRES WAVE AIR SEA DIR/SP/G HT/PER (UTC) (F) (DEG/KT/KT) (MB) (FT/S) MOUNT DESERT ROC 2100 61 200/ 18/ 18 1006.1R MATINICUS ROCK 2000 63 240/ 17/ 17 1005.4F ISLE OF SHOALS 2000 74 290/ 7/ 8 1007.0R JEFFREYS LEDGE 2036 66 N/A 3/ 8 CASHES LEDGE BUO 2050 73 69 1006.9R 4/ 7 GEORGES BANK BUO 1950 71 66 1009.9 6/ 7 $$ .............KEY.............. WCI - WIND CHILL TC - TEMPERATURE IN CELSIUS VSB - VISIBILITY IN MILES HX - HEAT INDEX FAIR- INDICATES FEW OR NO CLOUDS BELOW 12,000 FT, WITH NO SIGNIFICANT WEATHER AND/OR OBSTRUCTIONS TO VISIBILITY.

USA.gov is the U.S. government's official web portal to all federal, state and local government web resources and services.